Simultaneous Nadir Overpasses (SNOs) Predictions

Prediction of SNOs between GOES-16 and NOAA-20 Satellite Orbit:

Table of predicted SNOs for the next 14.0 days since TLE Epoch: 9/26/2025
Index Date Time (GOES-16) GOES-16 Lat,Lon NOAA-20 Lat,Lon Distance(km) Time Diff (sec)
1 09/27/2025 08:04:33 -0.09,-104.69 -1.03,-100.48 479.62 80
2 09/28/2025 20:26:28 0.09,-104.70 -0.12,-105.78 122.89 80
3 09/29/2025 20:10:23 0.09,-104.70 0.90,-101.25 394.30 80
4 10/01/2025 08:32:09 -0.09,-104.70 0.29,-106.51 205.36 80
5 10/02/2025 08:10:43 -0.10,-104.70 -0.68,-101.96 311.46 80
6 10/03/2025 20:32:37 0.09,-104.70 -0.51,-107.25 291.43 80
7 10/04/2025 20:16:31 0.10,-104.70 0.52,-102.72 225.97 80
8 10/06/2025 08:38:18 -0.09,-104.71 0.65,-107.98 372.63 80
9 10/07/2025 08:16:52 -0.10,-104.71 -0.38,-103.45 144.34 80
10 10/08/2025 20:38:47 0.09,-104.71 -0.79,-108.74 459.05 80
11 10/09/2025 20:22:40 0.09,-104.71 0.19,-104.19 58.10 80
